"Pseudo-MPEC" for P222GAW

Created 2024 Dec 1 13:31:20 UT using Find_Orb

Click here for an explanation of pseudo-MPECs

 
 Astrometry: 
     P222GAW* C2024 11 29.41494304 04 32.114-18 06 46.02   ~BTCV 20.83wXNEOCPF52
     P222GAW  C2024 11 29.42522104 04 31.683-18 04 18.19   ~BTCV 21.11wXNEOCPF52
     P222GAW  C2024 11 29.44579604 04 30.822-17 59 21.19   ~BTCV 21.19wXNEOCPF52
     P222GAW  C2024 11 29.53826904 04 27.594-17 37 05.29   ~BTLH 21.11GVNEOCPF52
     P222GAW  C2024 11 29.53889904 04 27.590-17 36 56.80   ~BTLH 21.00GVNEOCPF52
     P222GAW KC2024 12 01.15748304 05 00.524-11 37 49.44   ~C14V 21.15GVNEOCPI52
     P222GAW KC2024 12 01.15883704 05 00.485-11 37 32.63   ~C14V 21.00GVNEOCPI52
     P222GAW KC2024 12 01.16019004 05 00.431-11 37 15.89   ~C14V 19.96GVNEOCPI52
     P222GAW KC2024 12 01.16153704 05 00.420-11 36 59.65   ~C14V 20.31GVNEOCPI52
     P222GAW 3C2024 12 01.40714704 04 58.413-10 46 32.73   ~C1DH 20.69GVNEOCPT14
     P222GAW 3C2024 12 01.40812504 04 58.374-10 46 20.93   ~C1DH 20.73GVNEOCPT14
     P222GAW 3C2024 12 01.40910204 04 58.337-10 46 08.98   ~C1DH 20.89GVNEOCPT14
     P222GAW 3C2024 12 01.41008304 04 58.301-10 45 57.15   ~C1DH 21.24GVNEOCPT14

Station data:
(F52) Pan-STARRS 2, Haleakala  (N20.707382 W156.255910)  US/Hawaii.
   Observers J. Bulger, T. Dukes, T. Lowe, A. Schultz, M. Willman. Measurers
   K. Chambers, S. Chastel, T. de Boer, L. Denneau, J. Fairlamb, H.
   Flewelling, M. Huber, C.-C. Lin, E. Magnier, Y. Ramanjooloo, R. Wainscoat,
   R. Weryk. 1.8-m Ritchey-Chrétien + CCD.
(I52) Steward Observatory, Mt. Lemmon Station  (N32.442570 W110.788920)
   US/Arizona.  Observers T. A. Pruyne, B. M. Africano, E. J. Christensen, G.
   A. Farneth, D. C. Fuls, A. R. Gibbs, A. D. Grauer, H. Gröller, J. A.
   Johnson, R. A. Kowalski, S. M. Larson, G. J. Leonard, D. Rankin, R. L.
   Seaman, F. C. Shelly, K. W. Wierzchoś. 1.0-m prime focus + CCD.
(T14) Mauna Kea-UH/Tholen NEO Follow-Up (CFHT)  (N19.825252 W155.468876)
   US/Hawaii.  Observer R. Weryk. 3.6-m Canada-France-Hawaii Telescope.

Orbital elements:  P222GAW
   Perihelion 2024 Sep 30.70698 +/- 0.0211 TT = 16:58:02 (JD 2460584.20698)
Epoch 2024 Dec  1.0 TT = JDT 2460645.5   Earth MOID: 0.0327      AutoNEOCP
M  44.02255554 +/- 0.054            (J2000 ecliptic)
n   0.71823109 +/- 0.000663         Peri.  266.92483 +/- 0.035
a   1.23488518 +/- 0.00076          Node    86.68432 +/- 0.015
e   0.2966405 +/- 0.000578          Incl.    6.36014 +/- 0.012
P   1.372/501.222d         H 25.41  G  0.15   U  7.8
q 0.86856820 +/- 0.000213    Q 1.60120216 +/- 0.00169
From 13 observations 2024 Nov. 29-Dec. 1 (47.9 hr); mean residual 0".15
Residuals in arcseconds: 
241129 F52  .10-  .23+    241201 I52  .33+  .08-    241201 T14  .01-  .05-    
241129 F52  .01+  .19-    241201 I52  .16+  .07+    241201 T14  .01-  .06+    
241129 F52  .06+  .08-    241201 I52  .23-  .17+    241201 T14  .01+  .01-    
241129 F52  .07-  .33+    241201 I52  .02+  .16-    
241129 F52  .10+  .28-    241201 T14  .01+  .00     

Ephemerides (geocentric):
Date (UTC) HH   RA             Dec           delta  r     elong  mag " sig PA
---- --------  ------------   ------------  ------ ------ -----  --- --------
2024 12 01 14  04 05 00.636   -10 10 12.06  .07078 1.0463 147.3 21.1 .099 176
2024 12 01 15  04 05 01.152   -10 01 56.31  .07093 1.0465 147.4 21.1 .095 175
2024 12 01 16  04 05 01.667   -09 53 42.44  .07107 1.0467 147.5 21.1 .092 174
2024 12 01 17  04 05 02.182   -09 45 30.45  .07122 1.0469 147.7 21.1 .088 173
2024 12 01 18  04 05 02.696   -09 37 20.33  .07136 1.0471 147.8 21.1 .084 171
2024 12 01 19  04 05 03.210   -09 29 12.08  .07151 1.0473 147.9 21.1 .081 170
2024 12 01 20  04 05 03.723   -09 21 05.69  .07166 1.0474 148.0 21.1 .077 169
2024 12 01 21  04 05 04.236   -09 13 01.16  .07181 1.0476 148.1 21.1 .074 167
2024 12 01 22  04 05 04.748   -09 04 58.49  .07195 1.0478 148.2 21.1 .070 165
2024 12 01 23  04 05 05.260   -08 56 57.65  .07210 1.0480 148.4 21.1 .066 163
2024 12 02 00  04 05 05.771   -08 48 58.66  .07225 1.0482 148.5 21.1 .063 161
2024 12 02 01  04 05 06.282   -08 41 01.51  .07240 1.0484 148.6 21.1 .059 158
2024 12 02 02  04 05 06.792   -08 33 06.19  .07255 1.0486 148.7 21.1 .056 156
2024 12 02 03  04 05 07.303   -08 25 12.69  .07270 1.0488 148.8 21.1 .052 152
2024 12 02 04  04 05 07.812   -08 17 21.01  .07285 1.0490 148.9 21.1 .049 149
2024 12 02 05  04 05 08.322   -08 09 31.14  .07300 1.0492 149.0 21.1 .046 144
2024 12 02 06  04 05 08.831   -08 01 43.08  .07315 1.0494 149.2 21.1 .043 139
2024 12 02 07  04 05 09.340   -07 53 56.83  .07330 1.0496 149.3 21.1 .040 134
2024 12 02 08  04 05 09.848   -07 46 12.37  .07345 1.0498 149.4 21.1 .038 128
2024 12 02 09  04 05 10.357   -07 38 29.70  .07361 1.0500 149.5 21.1 .036 120
2024 12 02 10  04 05 10.865   -07 30 48.82  .07376 1.0502 149.6 21.1 .035 113
2024 12 02 11  04 05 11.373   -07 23 09.71  .07391 1.0504 149.7 21.1 .035 104
2024 12 02 12  04 05 11.881   -07 15 32.38  .07407 1.0506 149.8 21.1 .035  96
2024 12 02 13  04 05 12.389   -07 07 56.82  .07422 1.0507 149.9 21.1 .036  88
2024 12 02 14  04 05 12.896   -07 00 23.02  .07437 1.0509 150.0 21.1 .037  80
2024 12 02 15  04 05 13.404   -06 52 50.97  .07453 1.0511 150.1 21.1 .040  73
2024 12 02 16  04 05 13.911   -06 45 20.68  .07469 1.0513 150.2 21.1 .042  67
2024 12 02 17  04 05 14.418   -06 37 52.13  .07484 1.0515 150.3 21.1 .046  61
2024 12 02 18  04 05 14.926   -06 30 25.32  .07500 1.0517 150.4 21.1 .049  57
2024 12 02 19  04 05 15.433   -06 23 00.24  .07515 1.0519 150.5 21.1 .053  52
2024 12 02 20  04 05 15.941   -06 15 36.89  .07531 1.0521 150.6 21.1 .057  49
2024 12 02 21  04 05 16.448   -06 08 15.25  .07547 1.0523 150.7 21.1 .061  46
2024 12 02 22  04 05 16.955   -06 00 55.34  .07563 1.0525 150.8 21.1 .066  43
2024 12 02 23  04 05 17.463   -05 53 37.13  .07578 1.0527 150.9 21.1 .071  40
2024 12 03 00  04 05 17.971   -05 46 20.62  .07594 1.0529 151.0 21.1 .076  38
2024 12 03 01  04 05 18.478   -05 39 05.81  .07610 1.0531 151.1 21.1 .081  36
2024 12 03 02  04 05 18.986   -05 31 52.70  .07626 1.0533 151.2 21.1 .086  35
2024 12 03 03  04 05 19.494   -05 24 41.26  .07642 1.0535 151.3 21.1 .091  33
2024 12 03 04  04 05 20.003   -05 17 31.51  .07658 1.0537 151.4 21.1 .096  32
2024 12 03 05  04 05 20.511   -05 10 23.42  .07674 1.0539 151.5 21.1 .101  30
2024 12 03 06  04 05 21.020   -05 03 17.01  .07690 1.0541 151.6 21.1 .107  29
2024 12 03 07  04 05 21.529   -04 56 12.25  .07706 1.0543 151.7 21.1 .112  28
2024 12 03 08  04 05 22.038   -04 49 09.15  .07722 1.0544 151.8 21.1 .118  27
2024 12 03 09  04 05 22.547   -04 42 07.70  .07739 1.0546 151.9 21.2 .123  26
2024 12 03 10  04 05 23.057   -04 35 07.89  .07755 1.0548 152.0 21.2 .129  25
2024 12 03 11  04 05 23.567   -04 28 09.71  .07771 1.0550 152.1 21.2 .135  25
2024 12 03 12  04 05 24.078   -04 21 13.17  .07787 1.0552 152.2 21.2 .140  24
2024 12 03 13  04 05 24.588   -04 14 18.25  .07804 1.0554 152.3 21.2 .146  23